EHI
0 0 0 0 0 0 0 0 0 0 0 0 0 0 0 0 0 0 0 0 0 1 2 2 1 0 0 0 0 0 1 2 2 3 2 1 1 1 0 0 0 0 0 0 0 0 0 0 0
0 0 0 0 0 0 0 0 0 0 0 0 0 0 0 0 0 0 0 0 0 1 2 2 1 0 0 0 0 0 0 1 1 2 1 1 1 1 0 0 0 0 0 0 0 0 0 0 0
0 0 0 0 0 0 0 0 0 0 0 0 0 0 0 0 0 0 0 1 0 0 1 1 1 0 0 0 0 0 0 0 0 0 0 0 1 1 0 0 0 0 0 0 0 0 0 0 1
0 0 0 0 0 0 0 0 0 0 0 0 0 0 0 0 0 0 0 0 0 0 0 0 0 0 0 0 0 0 0 0 0 0 0 0 0 0 0 0 0 0 0 0 0 1 1 1 1
0 0 0 0 0 0 0 0 0 0 0 0 0 0 0 0 0 0 0 0 0 0 0 0 0 0 0 0 0 0 0 0 0 0 0 0 0 0 0 0 0 0 1 0 0 1 2 1 1
0 0 0 0 0 0 0 0 0 0 0 0 0 0 0 0 1 1 0 0 0 0 0 0 0 0 0 0 0 0 0 0 0 0 0 0 0 0 0 0 0 0 0 0 0 1 1 1 0
0 0 0 0 0 0 0 0 0 0 0 0 0 0 0 0 1 2 1 0 0 0 0 0 0 0 0 0 0 0 1 1 0 0 0 0 0 0 0 0 0 0 0 0 0 0 0 0 0
0 0 0 0 0 0 0 0 0 0 0 0 0 0 0 0 2 3 2 1 0 0 0 0 0 0 0 0 0 1 2 2 1 0 0 0 0 0 0 0 0 0 0 0 0 0 0 0 0
0 0 0 0 0 0 0 0 0 0 0 0 0 0 0 1 2 3 2 1 0 0 0 0 0 0 0 0 1 2 2 2 1 0 0 0 0 0 0 0 0 0 0 0 1 0 0 0 0
0 0 0 0 0 0 0 0 0 0 0 0 0 0 1 2 2 2 1 0 0 0 0 0 0 0 0 1 2 2 1 1 0 0 0 0 0 0 0 0 0 0 0 0 0 0 0 0 0
0 0 0 0 0 0 0 0 0 0 0 0 1 2 2 1 1 1 0 0 0 0 0 0 0 0 1 2 3 2 1 0 0 0 0 0 0 0 0 0 0 0 0 0 0 0 0 0 0
0 0 0 0 0 0 0 0 0 0 0 1 2 3 2 1 0 0 0 0 0 0 0 0 0 0 1 2 2 1 0 0 0 0 0 0 0 0 0 0 0 0 0 0 0 0 0 0 0
0 0 0 0 0 0 0 0 0 0 1 2 3 2 1 0 0 0 0 0 0 0 0 0 0 0 0 1 1 1 0 0 0 0 0 0 0 0 0 0 0 0 0 0 0 0 0 0 0
1 1 0 0 0 0 0 0 0 0 1 2 1 1 0 0 0 0 0 0 0 0 0 0 0 0 0 0 0 0 0 1 0 0 0 0 0 0 0 0 0 0 0 0 0 0 0 0 0
0 0 0 0 0 0 0 0 0 0 1 1 0 0 0 0 0 0 0 0 0 0 0 0 0 0 0 0 0 0 0 0 0 0 0 0 0 0 0 0 0 0 0 0 0 0 0 0 0
0 0 0 0 0 0 0 0 0 0 0 0 0 0 0 0 0 0 0 0 0 0 0 0 0 0 0 0 0 0 0 0 0 0 0 0 0 0 0 0 0 0 0 0 0 0 0 0 0
0 0 0 0 0 0 0 0 0 0 0 0 0 0 0 0 0 0 0 0 0 0 0 0 0 0 0 0 0 0 0 0 0 0 0 0 0 0 0 0 0 0 0 0 0 0 0 0 0
0 0 0 0 0 0 0 0 0 0 0 0 0 0 0 0 0 0 0 0 0 0 0 0 0 0 0 0 0 0 0 0 0 0 0 0 0 0 0 0 0 0 0 0 0 0 0 0 0
0 0 0 0 0 0 0 0 0 0 0 0 0 0 0 0 0 0 0 0 0 0 0 0 0 0 0 0 0 0 0 0 0 0 0 0 0 0 0 0 0 0 0 0 0 0 0 0 0
0 0 0 0 0 0 0 0 0 0 0 0 0 0 0 0 0 0 0 0 0 1 1 0 0 0 0 1 1 0 0 0 0 0 0 0 0 0 0 0 0 0 0 0 0 0 0 0 0
0 0 0 0 0 0 0 0 0 0 0 0 0 0 0 0 0 0 0 0 0 1 1 1 0 0 0 1 2 1 0 0 0 0 0 0 0 0 0 0 0 0 0 0 0 0 0 0 0
0 0 0 0 0 0 0 0 0 0 0 0 0 0 0 0 0 1 1 1 0 1 1 1 0 0 0 1 2 2 1 0 0 0 0 0 0 0 0 0 0 0 0 0 0 0 0 0 0
0 0 0 0 0 0 0 0 0 0 0 0 0 0 0 0 0 1 2 2 1 0 0 0 0 1 1 1 3 3 1 0 0 0 0 0 0 0 0 0 0 0 0 0 0 0 0 0 0
0 0 0 0 0 0 0 0 0 0 0 0 0 0 0 0 0 0 1 2 2 1 0 0 0 1 2 2 3 2 1 0 0 0 0 0 0 0 0 0 0 0 0 0 0 0 0 0 0
0 0 0 0 0 0 0 0 0 0 0 0 0 0 0 0 0 0 1 2 3 2 1 0 0 1 1 2 2 1 1 0 0 0 0 0 0 0 0 0 0 0 0 0 0 0 0 0 0
0 0 0 0 0 0 0 0 0 0 0 0 0 0 0 0 0 0 1 2 3 3 1 0 0 0 1 1 1 0 0 0 0 0 0 0 0 0 0 0 0 0 0 0 0 0 0 0 0
0 0 0 0 0 0 0 0 0 0 0 0 0 0 0 0 0 0 1 2 3 3 2 0 0 0 0 0 0 0 0 0 0 0 0 0 0 0 0 0 0 0 0 0 0 0 0 0 0
0 0 0 0 0 0 0 0 0 0 0 0 0 0 0 1 1 1 0 1 2 2 1 0 0 0 0 0 0 0 0 0 0 0 0 0 0 0 0 0 0 0 0 0 0 0 0 0 0
0 0 0 0 0 0 0 0 0 0 0 0 0 0 0 1 2 1 0 0 1 1 0 0 0 0 0 0 0 0 0 0 0 0 0 0 0 0 0 0 0 0 0 0 0 0 0 0 0
0 0 0 0 0 0 0 0 0 0 0 0 0 0 0 0 1 1 0 0 0 0 0 0 0 0 0 0 0 0 0 0 0 0 0 0 0 0 0 0 0 0 0 0 0 0 0 0 0
Wind_Speed
4 3 3 3 3 3 6 5 4 4 4 5 5 4 5 6 6 6 5 4 4 5 5 6 6 6 7 7 8 8 8 8 8 9 9 9 9 9 9 9 10 10 9 9 9 9 8 8 8
2 2 3 2 2 4 6 5 5 5 5 4 4 4 5 7 6 6 5 4 4 5 5 7 7 7 7 8 9 9 9 9 10 10 10 10 10 10 10 10 10 10 10 9 9 9 8 8 8
2 3 2 1 2 4 7 6 7 7 4 2 3 4 5 5 4 4 5 5 5 6 6 8 7 7 7 7 8 9 9 10 10 10 10 10 10 10 10 10 11 11 10 10 9 9 8 8 8
2 2 1 2 7 6 6 7 6 7 5 3 3 6 6 5 4 5 6 6 6 6 6 8 6 7 7 8 8 9 9 10 10 10 10 10 10 10 10 11 11 11 11 10 10 9 8 8 8
2 1 3 6 7 6 5 5 3 4 4 4 3 6 7 5 6 7 7 6 6 6 6 8 7 7 7 8 8 9 9 9 10 10 10 10 10 10 10 11 11 11 11 11 10 9 9 9 8
1 2 3 6 7 6 4 3 3 4 6 5 4 5 6 6 6 7 6 5 6 6 6 7 8 7 8 8 9 9 9 9 9 9 9 10 10 10 10 10 11 11 11 11 10 10 10 9 8
1 1 4 6 6 5 4 2 3 4 5 4 3 4 6 7 6 6 6 6 6 5 5 5 6 7 8 9 9 9 9 9 9 9 9 9 9 9 10 10 10 10 10 10 10 10 10 9 8
1 2 5 5 5 5 4 3 3 2 4 4 1 3 5 8 7 7 6 6 6 5 5 5 5 5 6 8 9 9 9 9 8 8 8 7 7 8 8 8 10 10 10 10 11 10 10 9 8
3 2 4 4 4 5 4 4 4 2 5 4 2 4 7 10 9 8 7 6 6 5 4 4 5 5 5 6 7 7 7 7 6 6 6 3 4 6 6 10 10 10 10 10 10 10 9 8 8
2 2 3 3 3 4 4 3 3 4 5 5 6 7 9 10 9 8 7 7 6 5 4 4 4 4 5 4 4 4 4 4 4 4 4 3 4 5 6 9 9 9 8 8 9 7 5 3 5
1 2 4 3 3 4 4 3 2 3 3 4 6 9 10 9 8 7 6 6 5 5 4 4 4 4 4 3 3 3 2 3 3 4 4 3 4 3 3 3 4 5 4 5 5 3 4 4 4
3 3 3 4 4 3 3 2 2 0 2 4 6 9 10 9 8 6 6 6 5 5 4 4 3 3 4 3 3 3 2 2 3 3 4 3 2 3 3 3 3 3 3 4 4 3 5 5 5
4 4 3 3 3 3 3 2 1 2 3 5 7 9 9 8 7 6 5 6 6 5 4 4 3 3 3 3 3 3 2 2 3 2 2 3 2 2 3 3 3 3 3 3 3 3 5 4 5
3 4 4 3 3 3 3 2 2 3 5 7 8 8 7 7 6 6 6 5 5 5 4 4 3 3 3 3 3 2 2 2 2 2 2 3 2 2 2 3 3 3 3 3 3 4 3 3 4
5 5 4 3 2 3 4 3 3 4 6 6 7 7 6 6 6 5 5 5 4 4 4 4 3 3 3 2 3 2 1 1 2 2 2 3 2 2 2 2 2 2 2 2 3 4 3 3 3
5 5 4 4 2 3 6 2 4 4 6 5 5 6 6 5 6 5 5 4 4 4 4 4 3 3 3 2 2 2 2 2 2 1 1 2 2 2 2 2 2 2 2 2 2 2 2 2 2
5 5 4 4 3 4 5 2 3 4 5 5 5 5 6 6 5 5 5 5 4 5 5 5 4 3 3 3 2 2 1 1 1 1 1 1 1 1 1 1 1 2 1 2 2 2 2 2 2
4 5 4 4 3 4 5 3 3 4 5 5 4 5 5 6 6 5 5 5 5 5 5 5 5 4 4 3 2 2 1 1 1 1 1 1 0 1 1 1 1 1 1 1 1 1 1 1 1
4 5 5 3 2 5 5 4 4 4 5 5 4 4 5 5 4 4 5 5 6 6 6 5 5 5 4 3 2 2 1 1 1 1 1 1 0 0 1 0 0 0 0 0 0 1 1 1 1
6 7 5 2 2 5 5 5 4 4 4 3 3 3 4 4 4 5 5 6 6 6 6 6 5 5 4 3 2 2 1 1 1 1 1 1 0 0 0 1 1 1 1 1 1 0 1 0 1
6 7 5 3 3 5 5 7 7 5 4 3 3 3 3 3 4 4 5 6 6 6 6 5 5 5 5 4 3 2 2 2 2 2 1 1 1 1 1 1 1 1 2 1 2 1 2 1 1
5 3 4 5 6 4 5 5 5 6 5 5 4 4 3 3 3 4 4 5 5 6 5 6 6 5 5 5 4 4 3 2 2 2 2 2 1 1 1 1 2 2 2 2 2 2 2 2 1
2 1 4 6 7 7 6 8 3 5 6 5 5 4 3 2 3 3 4 4 4 5 5 5 6 6 5 5 5 5 4 2 2 1 2 2 2 1 1 2 2 2 2 2 2 2 2 2 2
3 4 4 5 6 8 6 8 4 3 4 4 4 4 3 3 2 2 3 3 3 3 4 5 5 5 5 5 6 5 5 4 3 3 2 2 1 1 1 1 2 2 2 2 2 2 3 3 3
5 5 4 6 6 5 2 6 3 2 0 2 3 4 4 3 3 3 3 3 3 3 4 5 5 5 5 6 6 6 5 5 4 3 3 2 2 1 1 1 2 1 2 2 2 2 2 3 3
5 7 5 4 4 2 4 6 1 2 0 1 2 3 4 4 3 3 2 2 3 3 3 4 5 5 6 6 5 5 5 4 3 4 3 3 2 2 1 2 2 1 2 2 2 2 2 2 3
5 5 4 6 5 6 5 3 3 3 2 2 3 3 4 4 4 3 3 2 2 2 3 3 5 5 5 6 5 5 4 4 3 3 3 2 2 2 2 2 2 1 1 2 2 2 2 2 2
3 3 4 6 5 6 5 6 3 4 4 4 4 4 4 3 3 3 3 2 2 2 2 3 3 4 5 4 4 3 4 4 4 3 3 2 2 2 2 2 2 1 1 2 2 2 2 3 2
4 5 6 5 6 6 5 2 1 2 3 3 3 3 3 4 4 3 3 3 2 2 2 2 3 2 3 4 3 3 3 3 4 3 3 3 2 2 2 2 2 2 1 2 1 2 3 4 3
5 5 6 6 5 6 6 1 3 1 2 3 3 3 2 3 4 4 3 3 3 3 3 2 2 2 2 2 3 3 3 3 4 4 3 3 3 2 3 2 2 2 2 2 2 2 3 3 4
Wind_Direction
186 186 214 236 218 120 86 84 93 101 76 62 56 57 60 42 27 59 85 94 88 96 91 91 70 76 78 76 78 80 78 77 77 78 79 79 78 74 72 70 70 72 73 75 77 77 79 80 80
170 188 224 245 214 119 93 94 98 78 94 103 76 70 75 69 54 81 103 100 105 96 89 80 72 75 80 78 78 81 79 78 78 79 80 80 77 74 71 71 71 71 73 74 74 71 75 78 79
169 235 264 230 86 83 100 103 101 101 103 87 81 57 51 64 78 91 93 118 111 97 88 81 70 76 81 79 81 84 83 80 79 79 78 79 77 76 73 70 69 70 71 72 71 67 70 75 78
224 212 213 115 95 74 95 111 117 124 109 80 101 92 82 59 72 95 113 122 113 102 92 88 72 77 83 82 83 85 85 82 80 78 78 77 75 75 73 70 67 66 68 69 68 65 63 69 70
235 234 150 114 97 94 101 110 117 108 100 98 102 97 94 85 89 105 117 119 112 105 96 93 79 80 85 85 87 87 84 82 80 79 79 79 76 75 72 68 67 66 65 65 67 66 65 67 67
207 217 152 125 114 112 110 118 130 107 106 113 112 104 94 108 113 114 119 115 107 102 98 101 100 86 84 85 87 86 83 80 80 79 77 76 73 70 67 66 67 65 64 65 65 65 65 65 66
251 138 121 124 128 124 107 123 133 117 114 106 110 106 115 130 119 125 123 114 106 102 98 95 102 109 104 91 86 84 81 79 80 78 76 76 75 73 69 67 67 68 67 66 64 64 64 63 66
310 156 136 137 141 123 117 124 100 91 96 97 116 112 127 139 136 134 126 119 114 106 97 93 95 95 101 102 91 85 80 77 78 76 74 78 88 85 75 71 66 66 67 65 64 63 63 63 67
244 188 151 146 150 129 136 140 108 99 117 116 87 69 105 133 144 144 138 131 120 109 96 91 91 91 90 90 99 100 94 81 86 91 85 89 86 85 87 66 61 62 64 63 63 62 63 67 78
229 168 127 123 138 134 144 142 133 153 139 132 126 112 123 141 152 151 146 139 130 121 107 93 88 86 91 90 95 88 89 91 76 72 80 72 73 72 73 81 68 65 64 72 66 65 72 55 70
114 112 117 125 131 145 148 138 153 174 141 137 145 142 144 152 155 154 147 137 127 121 111 100 96 91 88 94 89 81 77 79 70 63 70 69 74 83 79 82 87 76 66 67 79 79 54 53 55
117 108 127 131 140 162 157 142 136 141 68 100 128 140 149 158 160 160 149 136 128 116 108 102 97 100 96 94 90 90 87 80 71 59 68 69 70 69 69 66 59 57 54 47 46 49 56 50 55
137 120 124 132 140 154 151 159 137 122 114 117 129 143 153 158 157 152 145 141 135 130 127 111 104 93 97 93 82 87 83 76 82 66 56 67 66 70 75 75 62 51 48 48 43 48 51 45 43
130 139 136 146 151 168 170 179 183 145 141 140 145 153 159 159 160 157 158 154 149 145 135 125 119 106 102 101 98 81 79 90 80 76 62 66 69 69 72 78 67 52 40 41 46 58 55 49 47
151 150 155 159 170 164 183 185 179 151 157 157 158 160 162 168 170 171 167 165 161 155 143 135 133 124 115 104 91 88 84 90 85 82 72 69 69 67 63 61 67 56 50 57 54 59 52 60 59
179 192 182 159 183 183 228 193 133 159 175 174 171 169 175 179 184 180 173 173 168 167 154 142 150 148 133 119 106 101 99 87 85 84 85 78 81 81 68 64 61 53 51 60 62 53 52 57 46
198 206 194 173 185 199 232 221 156 174 194 197 190 186 188 184 189 185 184 184 180 179 169 160 163 165 152 143 134 118 112 95 85 82 79 85 91 90 87 73 67 62 59 62 62 53 46 50 42
201 211 210 206 178 214 232 236 198 191 207 210 201 201 199 196 192 186 187 187 184 183 179 171 169 176 162 160 158 143 134 119 103 91 75 50 58 97 96 113 89 74 73 67 73 76 64 44 41
236 230 231 227 210 230 235 234 226 201 203 207 205 207 208 203 183 177 185 189 188 189 190 181 182 179 173 170 177 176 170 166 147 117 94 86 337 106 112 190 124 82 85 343 43 62 86 40 351
229 233 232 216 201 240 239 240 223 198 201 213 218 213 210 196 182 180 189 189 196 193 196 189 188 184 180 179 184 189 186 196 175 171 174 193 210 304 258 229 203 196 211 246 230 227 283 299 298
230 240 240 240 221 220 243 231 207 185 188 198 220 224 211 205 201 189 192 193 196 198 196 197 192 188 185 179 181 182 172 184 176 180 184 211 239 239 269 271 241 225 222 228 246 246 263 284 281
237 241 237 229 237 228 243 257 200 188 193 203 208 212 213 208 209 194 194 198 199 201 198 200 195 195 189 185 192 196 199 201 204 193 186 193 203 222 252 260 251 236 233 235 245 249 262 267 262
257 226 225 236 251 253 234 257 209 186 209 209 207 208 202 198 204 198 199 202 201 194 194 199 194 194 194 195 193 207 211 215 202 198 199 199 182 208 237 258 249 241 232 241 252 262 264 262 269
172 188 196 224 244 246 235 248 238 189 218 209 195 190 181 174 175 177 185 190 192 186 189 193 197 192 192 197 200 205 209 210 202 205 202 205 184 204 226 253 247 242 238 239 239 241 247 259 267
204 219 221 219 220 235 191 244 251 98 162 227 207 187 174 160 160 154 159 179 192 190 191 196 196 193 189 197 204 206 212 213 212 210 204 208 199 201 215 227 246 243 244 242 240 240 245 249 260
213 235 253 261 254 240 210 240 167 104 94 234 210 182 173 163 162 156 160 178 188 190 194 200 195 193 191 199 204 207 209 216 220 220 213 210 215 216 217 224 240 244 247 241 236 250 248 254 254
214 225 278 281 269 262 228 220 214 172 196 190 185 179 176 171 165 164 164 168 177 187 195 205 197 191 193 199 202 206 206 208 214 214 211 208 211 213 211 212 227 234 234 239 235 251 249 257 256
267 232 227 243 256 254 244 235 222 182 200 197 200 198 185 173 171 166 163 166 181 192 193 193 201 195 189 197 199 202 209 207 209 206 200 197 201 202 205 211 221 229 235 237 234 251 257 252 256
197 211 235 245 262 270 266 218 87 200 212 220 216 212 203 192 180 176 177 173 174 180 184 185 183 185 193 196 193 195 201 204 199 198 197 198 205 209 217 219 225 224 233 244 242 255 257 259 254
236 234 234 246 242 254 275 276 96 251 238 238 238 226 222 204 188 182 184 188 187 183 182 189 180 176 185 199 193 194 192 201 202 201 201 201 206 212 225 222 224 235 245 252 253 259 260 263 266